CW5988 Weather Reports


time (UTC)temp
F
wind
direction
speed
knots
gust
knots
rain 1hr
in
rain 24hr
in
rain mn
in
humidity
%
barometer
mb
20260510140926 53 237 6.1 10.4 0.00 0.00 0.00 89 1014.6
20260510140432 53 275 5.2 9.6 0.00 0.00 0.00 89 1014.6
20260510135939 53 299 4.3 11.3 0.00 0.00 0.00 89 1014.5
20260510135444 53 270 4.3 11.3 0.00 0.00 0.00 89 1014.5
20260510134931 53 247 5.2 18.2 0.00 0.00 0.00 89 1014.4
20260510134437 53 309 5.2 18.2 0.00 0.00 0.00 89 1014.4
20260510133923 53 318 4.3 11.3 0.00 0.00 0.00 89 1014.4
20260510133428 53 282 4.3 11.3 0.00 0.00 0.00 89 1014.2
20260510132934 53 349 4.3 11.3 0.00 0.00 0.00 89 1014.3
20260510132441 53 289 4.3 9.6 0.00 0.00 0.00 89 1014.2
20260510131922 53 222 5.2 9.6 0.00 0.00 0.00 89 1014.2
20260510131429 53 273 4.3 7.8 0.00 0.00 0.00 89 1014.1
20260510130935 53 249 2.6 7.8 0.00 0.00 0.00 89 1014.1
20260510130440 53 287 1.7 8.7 0.00 0.00 0.00 89 1014.2
20260510125924 53 187 3.5 8.7 0.00 0.00 0.00 89 1014.1
20260510125454 53 219 5.2 9.6 0.00 0.00 0.00 89 1014.2
20260510124941 53 316 4.3 10.4 0.00 0.00 0.00 89 1014.1
20260510124442 53 268 5.2 13.0 0.00 0.00 0.00 89 1014.2
20260510123949 53 337 8.7 16.5 0.00 0.00 0.00 89 1014.1
20260510123428 53 285 5.2 16.5 0.00 0.00 0.00 89 1014.1
20260510122936 53 324 3.5 10.4 0.00 0.00 0.00 89 1014.0
20260510122425 53 313 1.7 6.1 0.00 0.00 0.00 89 1014.1
20260510121933 53 199 1.7 12.2 0.00 0.00 0.00 89 1014.0
20260510121438 53 236 5.2 12.2 0.00 0.00 0.00 89 1014.1
20260510120940 53 254 4.3 11.3 0.00 0.00 0.00 89 1014.2
20260510120424 53 326 2.6 9.6 0.00 0.00 0.00 89 1014.2
20260510115930 53 337 4.3 14.8 0.00 0.00 0.00 89 1014.2
20260510115436 53 313 2.6 12.2 0.00 0.00 0.00 89 1014.3
20260510114944 53 101 0.9 7.8 0.00 0.00 0.00 89 1014.1
20260510114427 53 268 2.6 13.0 0.00 0.00 0.00 89 1014.1
20260510113957 53 280 2.6 11.3 0.00 0.00 0.00 89 1014.2
20260510112934 53 294 6.1 11.3 0.00 0.00 0.00 89 1014.2
20260510112440 53 234 3.5 8.7 0.00 0.00 0.00 89 1014.2
20260510111925 53 189 3.5 13.0 0.00 0.00 0.00 89 1014.2
20260510111433 53 297 7.8 13.0 0.00 0.00 0.00 89 1014.4
20260510110937 53 283 5.2 12.2 0.00 0.00 0.00 89 1014.3
20260510110445 53 216 3.5 10.4 0.00 0.00 0.00 89 1014.3
20260510105931 53 295 3.5 9.6 0.00 0.00 0.00 89 1014.3
20260510105434 53 116 4.3 9.6 0.00 0.00 0.00 89 1014.2
20260510104942 53 249 4.3 11.3 0.00 0.00 0.00 89 1014.2
20260510104429 53 221 3.5 11.3 0.00 0.00 0.00 89 1014.2
20260510103935 53 259 4.3 18.2 0.00 0.00 0.00 89 1014.3
20260510103421 53 330 2.6 18.2 0.00 0.00 0.00 89 1014.3
20260510102928 53 66 1.7 8.7 0.00 0.00 0.00 89 1014.3
20260510102436 53 261 1.7 9.6 0.00 0.00 0.00 89 1014.3
20260510101922 53 215 4.3 10.4 0.00 0.00 0.00 89 1014.4
20260510101427 53 252 6.1 10.4 0.00 0.00 0.00 89 1014.4
20260510100934 53 235 3.5 7.8 0.00 0.00 0.00 89 1014.4
20260510100440 53 190 4.3 11.3 0.00 0.00 0.00 89 1014.4
20260510095946 53 134 3.5 11.3 0.00 0.00 0.00 89 1014.4
20260510095435 53 227 1.7 13.0 0.00 0.00 0.00 89 1014.4
20260510094922 53 285 5.2 13.0 0.00 0.00 0.00 89 1014.4
20260510094444 53 270 4.3 9.6 0.00 0.00 0.00 89 1014.5
20260510093929 53 341 3.5 9.6 0.00 0.00 0.00 89 1014.5
20260510093435 53 258 5.2 10.4 0.00 0.00 0.00 89 1014.5
20260510092933 53 242 5.2 10.4 0.00 0.00 0.00 89 1014.5
20260510092422 53 280 3.5 12.2 0.00 0.00 0.00 89 1014.4
20260510091928 53 308 5.2 13.0 0.00 0.00 0.00 89 1014.4
20260510091435 53 251 4.3 14.8 0.00 0.00 0.00 89 1014.4
20260510090921 53 333 7.0 14.8 0.00 0.00 0.00 89 1014.5
20260510090441 53 22 4.3 11.3 0.00 0.00 0.00 89 1014.4
20260510085946 53 249 3.5 14.8 0.00 0.00 0.00 89 1014.5
20260510085431 53 221 6.1 14.8 0.00 0.00 0.00 89 1014.5
20260510084940 53 254 5.2 13.9 0.00 0.00 0.00 89 1014.4
20260510084446 53 244 6.1 18.2 0.00 0.00 0.00 89 1014.5
20260510083931 53 291 9.6 18.2 0.00 0.00 0.00 89 1014.5
20260510083434 53 247 7.8 20.0 0.00 0.00 0.00 89 1014.5
20260510082939 53 191 10.4 20.0 0.00 0.00 0.00 89 1014.5
20260510082424 53 285 9.6 16.5 0.00 0.00 0.00 89 1014.5
20260510081931 53 258 9.6 18.2 0.00 0.00 0.00 89 1014.5
20260510081440 53 233 9.6 20.0 0.00 0.00 0.00 89 1014.6
20260510080925 53 320 9.6 20.0 0.00 0.00 0.00 89 1014.5
20260510080427 53 242 6.1 12.2 0.00 0.00 0.00 89 1014.5
20260510075943 53 197 6.1 14.8 0.00 0.00 0.00 89 1014.7
20260510075429 53 263 7.0 17.4 0.00 0.00 0.00 89 1014.7
20260510074933 53 256 9.6 22.6 0.00 0.00 0.00 89 1014.6
20260510074421 53 251 12.2 22.6 0.00 0.00 0.00 89 1014.6
20260510073926 53 228 9.6 20.0 0.00 0.00 0.00 89 1014.7
20260510073431 53 244 9.6 17.4 0.00 0.00 0.00 89 1014.7
20260510072937 53 348 7.8 20.9 0.00 0.00 0.00 88 1014.8
20260510072421 53 278 9.6 20.9 0.00 0.00 0.00 88 1014.9
20260510071949 53 177 7.8 15.6 0.00 0.00 0.00 88 1014.8
20260510071434 53 282 9.6 16.5 0.00 0.00 0.00 88 1014.9
20260510070922 53 264 7.0 16.5 0.00 0.00 0.00 88 1014.9
20260510070516 53 290 9.6 17.4 0.00 0.00 0.00 88 1014.8
20260510065953 53 251 6.1 20.0 0.00 0.00 0.00 88 1014.8
20260510065436 53 290 12.2 20.0 0.00 0.00 0.00 88 1014.7
20260510064940 53 269 8.7 19.1 0.00 0.00 0.00 88 1014.7
20260510064427 53 273 7.8 16.5 0.00 0.00 0.00 88 1014.7
20260510063933 53 236 5.2 15.6 0.00 0.00 0.00 88 1014.8
20260510063421 53 258 7.0 15.6 0.00 0.00 0.00 88 1014.8
20260510062927 53 286 6.1 13.9 0.00 0.00 0.00 88 1014.8
20260510062434 53 222 3.5 13.9 0.00 0.00 0.00 88 1014.8
20260510061922 53 270 7.0 15.6 0.00 0.00 0.00 88 1014.7
20260510061425 53 219 4.3 18.2 0.00 0.00 0.00 88 1014.8
20260510060930 53 270 8.7 18.2 0.00 0.00 0.00 88 1014.8
20260510060438 53 206 7.0 18.2 0.00 0.00 0.00 87 1014.7
20260510055927 53 273 8.7 18.2 0.00 0.00 0.00 87 1014.7
20260510055433 53 261 8.7 16.5 0.00 0.00 0.00 87 1014.7
20260510054922 53 219 8.7 16.5 0.00 0.00 0.00 87 1014.6
20260510054431 53 229 7.0 16.5 0.00 0.00 0.00 87 1014.7
20260510053932 53 257 6.1 17.4 0.00 0.00 0.00 87 1014.7
20260510053438 54 359 9.6 19.1 0.00 0.00 0.00 87 1014.7
20260510052924 54 256 9.6 19.1 0.00 0.00 0.00 87 1014.7
20260510052433 54 225 8.7 16.5 0.00 0.00 0.00 87 1014.7
20260510051922 54 205 6.1 16.5 0.00 0.00 0.00 87 1014.7
20260510051429 54 249 7.0 15.6 0.00 0.00 0.00 86 1014.7
20260510050935 54 271 8.7 18.2 0.00 0.00 0.00 87 1014.7
20260510050423 54 287 10.4 18.2 0.00 0.00 0.00 86 1014.7
20260510045922 54 256 9.6 18.2 0.00 0.00 0.00 86 1014.6
20260510045431 54 251 9.6 24.3 0.00 0.00 0.00 86 1014.6
20260510044938 54 271 10.4 24.3 0.00 0.00 0.00 86 1014.6
20260510044427 54 232 7.0 21.7 0.00 0.00 0.00 86 1014.5
20260510043933 54 280 9.6 21.7 0.00 0.00 0.00 86 1014.4
20260510043439 54 234 10.4 19.1 0.00 0.00 0.00 86 1014.4
20260510042925 54 258 9.6 17.4 0.00 0.00 0.00 86 1014.4
20260510042430 54 244 9.6 17.4 0.00 0.00 0.00 86 1014.3
20260510041934 54 244 7.8 19.1 0.00 0.00 0.00 86 1014.2
20260510041421 54 230 10.4 19.1 0.00 0.00 0.00 86 1014.0
20260510040929 54 242 8.7 20.9 0.00 0.00 0.00 86 1013.9
20260510040433 54 275 11.3 20.9 0.00 0.00 0.00 86 1013.8
20260510035940 54 256 10.4 18.2 0.00 0.00 0.00 86 1013.8
20260510035423 54 266 9.6 19.1 0.00 0.00 0.00 86 1013.9
20260510034950 54 290 10.4 19.1 0.00 0.00 0.00 86 1013.8
20260510034431 54 275 12.2 25.2 0.00 0.00 0.00 86 1013.8
20260510033939 55 282 10.4 25.2 0.00 0.00 0.00 86 1013.8
20260510033426 55 253 13.9 21.7 0.00 0.00 0.00 85 1013.6
20260510032931 55 268 11.3 21.7 0.00 0.00 0.00 85 1013.7
20260510032439 55 222 11.3 20.9 0.00 0.00 0.00 85 1013.8
20260510031927 55 289 13.9 25.2 0.00 0.00 0.00 85 1013.7
20260510031433 55 247 12.2 20.0 0.00 0.00 0.00 85 1013.6
20260510030920 55 283 9.6 22.6 0.00 0.00 0.00 85 1013.7
20260510030421 55 282 10.4 25.2 0.00 0.00 0.00 85 1013.5
20260510025928 55 263 11.3 24.3 0.00 0.00 0.00 85 1013.4
20260510025434 55 280 10.4 21.7 0.00 0.00 0.00 85 1013.5
20260510024940 55 280 13.0 25.2 0.00 0.00 0.00 85 1013.5
20260510024426 55 278 11.3 20.9 0.00 0.00 0.00 85 1013.4
20260510023933 55 276 11.3 23.5 0.00 0.00 0.00 85 1013.4
20260510023439 55 242 10.4 23.5 0.00 0.00 0.00 84 1013.3
20260510022941 55 254 8.7 25.2 0.00 0.00 0.00 84 1013.3
20260510022427 55 294 13.0 27.8 0.00 0.00 0.00 84 1013.4
20260510021933 55 275 13.0 27.8 0.00 0.00 0.00 84 1013.4
20260510021438 55 270 13.0 23.5 0.00 0.00 0.00 84 1013.4
20260510020925 55 275 13.0 27.8 0.00 0.00 0.00 84 1013.4
20260510020434 55 259 15.6 27.8 0.00 0.00 0.00 84 1013.4
20260510015922 56 224 13.9 23.5 0.00 0.00 0.00 83 1013.3
20260510015429 56 259 13.9 27.8 0.00 0.00 0.00 83 1013.2
20260510014932 56 266 13.9 28.7 0.00 0.00 0.00 83 1013.3
20260510014438 56 252 15.6 28.7 0.00 0.00 0.00 82 1013.2
20260510013925 56 268 13.9 26.9 0.00 0.00 0.00 82 1013.5
20260510013433 57 246 13.9 26.9 0.00 0.00 0.00 82 1013.3
20260510012939 57 262 16.5 26.9 0.00 0.00 0.00 81 1013.3
20260510012427 57 212 14.8 25.2 0.00 0.00 0.00 81 1013.4
20260510012001 58 239 10.4 23.5 0.00 0.00 0.00 81 1013.5
20260510011452 58 270 11.3 23.5 0.00 0.00 0.00 81 1013.5
20260510010940 58 285 14.8 26.1 0.00 0.00 0.00 81 1013.5
20260510010447 58 259 9.6 23.5 0.00 0.00 0.00 80 1013.5
20260510005931 58 251 13.9 23.5 0.00 0.00 0.00 80 1013.5
20260510005439 58 242 9.6 24.3 0.00 0.00 0.00 80 1013.6
20260510004945 58 274 10.4 24.3 0.00 0.00 0.00 79 1013.6
20260510004426 59 186 7.8 22.6 0.00 0.00 0.00 79 1013.7
20260510004001 59 227 10.4 22.6 0.00 0.00 0.00 79 1013.6
20260510003426 59 241 9.6 20.9 0.00 0.00 0.00 79 1013.7
20260510002934 59 271 9.6 20.9 0.00 0.00 0.00 79 1013.6
20260510002421 59 256 10.4 20.9 0.00 0.00 0.00 79 1013.8
20260510001929 59 238 11.3 21.7 0.00 0.00 0.00 79 1013.6
20260510001436 59 282 9.6 21.7 0.00 0.00 0.00 79 1013.7
20260510000923 59 189 10.4 22.6 0.00 0.00 0.00 79 1013.5
20260510000449 59 275 13.0 26.9 0.00 0.00 0.00 79 1013.5
20260509235935 59 247 11.3 26.9 0.00 0.00 0.00 79 1013.5
20260509235442 59 263 15.6 27.8 0.00 0.00 0.00 79 1013.5
20260509234926 59 263 13.0 27.8 0.00 0.00 0.00 79 1013.5
20260509234430 59 249 12.2 27.8 0.00 0.00 0.00 79 1013.7
20260509233939 59 256 13.9 26.9 0.00 0.00 0.00 79 1013.6
20260509233421 60 283 11.3 22.6 0.00 0.00 0.00 78 1013.7
20260509232928 59 177 12.2 26.1 0.00 0.00 0.00 79 1013.7
20260509232436 59 272 13.9 26.9 0.00 0.00 0.00 79 1013.7
20260509231922 59 258 13.9 26.1 0.00 0.00 0.00 78 1013.7
20260509231428 60 270 13.9 26.1 0.00 0.00 0.00 78 1013.8
20260509230954 60 264 13.9 23.5 0.00 0.00 0.00 78 1013.7
20260509230438 60 273 12.2 26.1 0.00 0.00 0.00 78 1013.9
20260509225921 60 294 15.6 26.1 0.00 0.00 0.00 78 1013.8
20260509225426 60 234 13.0 26.1 0.00 0.00 0.00 78 1013.9
20260509224932 60 268 13.9 26.1 0.00 0.00 0.00 78 1014.0
20260509224438 60 282 13.9 27.8 0.00 0.00 0.00 78 1014.0
20260509223923 60 302 12.2 27.8 0.00 0.00 0.00 78 1014.1
20260509223430 60 275 16.5 25.2 0.00 0.00 0.00 78 1014.2
20260509222937 61 214 12.2 23.5 0.00 0.00 0.00 77 1014.1
20260509222425 61 243 11.3 23.5 0.00 0.00 0.00 77 1014.2
20260509221929 60 280 13.9 28.7 0.00 0.00 0.00 78 1014.2
20260509221434 60 280 15.6 28.7 0.00 0.00 0.00 77 1014.2
20260509220921 61 273 11.3 29.5 0.00 0.00 0.00 78 1014.3
20260509220430 61 271 13.9 27.8 0.00 0.00 0.00 77 1014.2
20260509215937 60 299 13.9 27.8 0.00 0.00 0.00 77 1014.2
20260509215443 61 275 13.9 27.8 0.00 0.00 0.00 76 1014.3
20260509215000 61 280 14.8 27.8 0.00 0.00 0.00 77 1014.3
20260509214421 61 256 11.3 22.6 0.00 0.00 0.00 76 1014.4
20260509213930 61 266 10.4 22.6 0.00 0.00 0.00 77 1014.7
20260509213434 61 214 9.6 22.6 0.00 0.00 0.00 77 1014.7
20260509212937 61 314 9.6 23.5 0.00 0.00 0.00 78 1014.9
20260509212423 60 263 13.0 26.1 0.00 0.00 0.00 77 1014.8
20260509211928 60 259 12.2 26.1 0.00 0.00 0.00 77 1014.9
20260509211436 60 259 11.3 23.5 0.00 0.00 0.00 77 1015.0
20260509210925 60 270 13.0 22.6 0.00 0.00 0.00 77 1014.9
20260509210428 60 302 14.8 25.2 0.00 0.00 0.00 77 1015.0
20260509205935 60 244 14.8 25.2 0.00 0.00 0.00 78 1015.0
20260509205423 60 261 13.0 24.3 0.00 0.00 0.00 77 1015.1
20260509204933 60 300 11.3 22.6 0.00 0.00 0.00 77 1015.1
20260509204440 60 261 13.0 26.9 0.00 0.00 0.00 78 1015.3
20260509203928 60 237 14.8 26.9 0.00 0.00 0.00 78 1015.2
20260509203437 60 299 13.0 26.1 0.00 0.00 0.00 77 1015.3
20260509202924 60 283 13.0 26.1 0.00 0.00 0.00 77 1015.3
20260509202425 60 245 13.9 24.3 0.00 0.00 0.00 77 1015.4
20260509201931 60 257 15.6 24.3 0.00 0.00 0.00 77 1015.3
20260509201439 60 292 13.9 24.3 0.00 0.00 0.00 76 1015.4
20260509200925 61 320 10.4 18.2 0.00 0.00 0.00 76 1015.5
20260509200431 61 268 9.6 20.9 0.00 0.00 0.00 75 1015.5
20260509195939 61 303 9.6 20.9 0.00 0.00 0.00 75 1015.6
20260509195455 62 282 6.1 17.4 0.00 0.00 0.00 75 1015.6
20260509194936 62 243 9.6 16.5 0.00 0.00 0.00 74 1015.6
20260509194421 62 280 7.8 12.2 0.00 0.00 0.00 74 1015.7
20260509193947 62 328 5.2 13.0 0.00 0.00 0.00 74 1015.7
20260509193435 62 333 7.8 13.0 0.00 0.00 0.00 73 1015.7
20260509192920 62 313 3.5 8.7 0.00 0.00 0.00 73 1015.8
20260509192446 62 308 3.5 9.6 0.00 0.00 0.00 73 1015.9
20260509191927 62 336 5.2 9.6 0.00 0.00 0.00 73 1015.8
20260509191433 62 78 3.5 6.1 0.00 0.00 0.00 75 1015.8
20260509190938 61 268 4.3 11.3 0.00 0.00 0.00 75 1015.8
20260509190455 61 254 6.1 12.2 0.00 0.00 0.00 75 1015.8
20260509185931 61 280 7.0 11.3 0.00 0.00 0.00 75 1015.9
20260509185435 61 299 5.2 11.3 0.00 0.00 0.00 76 1015.9
20260509184942 60 88 6.1 11.3 0.00 0.00 0.00 76 1016.0
20260509184444 60 202 4.3 13.0 0.00 0.00 0.00 76 1016.1
20260509183928 60 305 6.1 13.0 0.00 0.00 0.00 76 1016.0
20260509183502 60 294 6.1 11.3 0.00 0.00 0.00 76 1016.1
20260509182958 61 268 3.5 9.6 0.00 0.00 0.00 76 1016.0
20260509182422 60 297 4.3 9.6 0.00 0.00 0.00 76 1016.0
20260509181929 60 313 6.1 11.3 0.00 0.00 0.00 76 1016.0
20260509181500 60 299 7.0 11.3 0.00 0.00 0.00 76 1016.1
20260509180945 60 300 5.2 9.6 0.00 0.00 0.00 77 1016.1
20260509180428 60 280 5.2 9.6 0.00 0.00 0.00 77 1016.1
20260509175934 59 249 4.3 8.7 0.00 0.00 0.00 78 1016.1
20260509175420 59 330 5.2 8.7 0.00 0.00 0.00 78 1016.1
20260509174925 59 292 2.6 8.7 0.00 0.00 0.00 78 1016.2
20260509174449 59 322 5.2 9.6 0.00 0.00 0.00 78 1016.2
20260509173934 58 321 6.1 11.3 0.00 0.00 0.00 78 1016.2
20260509173437 58 294 5.2 11.3 0.00 0.00 0.00 78 1016.2
20260509172922 58 277 5.2 8.7 0.00 0.00 0.00 78 1016.1
20260509172430 57 258 3.5 8.7 0.00 0.00 0.00 80 1016.1
20260509172002 57 233 5.2 11.3 0.00 0.00 0.00 80 1016.1
20260509171451 57 229 5.2 11.3 0.00 0.00 0.00 79 1016.1
20260509170939 57 217 5.2 10.4 0.00 0.00 0.00 79 1016.1
20260509170423 58 236 2.6 8.7 0.00 0.00 0.00 78 1016.1
20260509165958 58 222 2.6 7.8 0.00 0.00 0.00 79 1016.1
20260509165422 58 268 1.7 7.8 0.00 0.00 0.00 79 1016.0
20260509164928 58 219 3.5 8.7 0.00 0.00 0.00 79 1016.1
20260509164435 58 211 5.2 8.7 0.00 0.00 0.00 79 1016.1
20260509163922 58 222 4.3 7.0 0.00 0.00 0.00 79 1016.0
20260509163426 58 222 3.5 7.0 0.00 0.00 0.00 79 1016.1
20260509162933 58 310 3.5 7.0 0.00 0.00 0.00 80 1016.1
20260509162439 58 256 2.6 7.0 0.00 0.00 0.00 81 1016.0
20260509161925 57 254 3.5 7.0 0.00 0.00 0.00 81 1016.0
20260509161452 57 276 3.5 7.0 0.00 0.00 0.00 82 1016.1
20260509160937 57 313 3.5 9.6 0.00 0.00 0.00 82 1016.0
20260509160421 56 282 1.7 9.6 0.00 0.00 0.00 83 1016.0
20260509155923 56 205 5.2 7.8 0.00 0.00 0.00 84 1016.1
20260509155428 56 293 2.6 7.0 0.00 0.00 0.00 84 1016.1
20260509154935 56 222 2.6 7.8 0.00 0.00 0.00 85 1016.1
20260509154423 55 210 2.6 6.1 0.00 0.00 0.00 85 1016.0
20260509153930 55 205 2.6 9.6 0.00 0.00 0.00 85 1015.9
20260509153437 55 210 3.5 7.0 0.00 0.00 0.00 85 1015.9
20260509152925 55 235 2.6 7.8 0.00 0.00 0.00 85 1015.9
20260509152426 55 231 1.7 7.8 0.00 0.00 0.00 85 1015.8
20260509151959 55 261 3.5 7.8 0.00 0.00 0.00 85 1015.9
20260509151455 55 244 2.6 7.8 0.00 0.00 0.00 85 1016.0
20260509150938 55 234 4.3 7.8 0.00 0.00 0.00 85 1016.0
20260509150424 55 195 3.5 7.0 0.00 0.00 0.00 86 1016.0
20260509145950 55 290 1.7 9.6 0.00 0.00 0.00 86 1016.0
20260509145431 55 237 3.5 9.6 0.00 0.00 0.00 86 1016.0
20260509144935 55 235 2.6 7.0 0.00 0.00 0.00 86 1016.0
20260509144439 54 233 2.6 6.1 0.00 0.00 0.00 86 1015.9
20260509143946 54 210 2.6 7.8 0.00 0.00 0.00 86 1015.9
20260509143433 54 222 3.5 7.8 0.00 0.00 0.00 86 1015.8
20260509142941 54 186 3.5 6.1 0.00 0.00 0.00 86 1015.9
20260509142426 54 213 3.5 6.1 0.00 0.00 0.00 86 1015.9
20260509141928 54 139 0.9 6.1 0.00 0.00 0.00 87 1015.8
20260509141434 54 155 3.5 6.1 0.00 0.00 0.00 87 1015.8